PRISM (33493 NORAD) Tracking and Keplerian Element Data

This shows tracking and keplerian element data for the satellite.

Feedback or suggestion? Click here.




ElementValue
Catalog33493
NamePRISM
Epoch Orbit75193
Epoch Day321.52326093
Epoch Year2022
RAAN317.1108
Inclination98.2519
Eccentricity0.0017758
Argument of Perigee39.898
Mean Anonmoly320.3544
Mean Motion15.01466795
Decay Rate5.16E-05
L11 33493U 09002B 22321.52326093 .00005160 00000-0 40319-3 0 9995
L22 33493 98.2519 317.1108 0017758 39.8980 320.3544 15.01466795751934



Live tracking and technical data element details for PRISM (NORAD 33493). PRISM can be tracked NOW for your location showing map with azimuth and elevation plus other details from your city location.







IsCatalogInMostPopularTable: catalog: 33493, numindb: 339
Update: records affected: 1



GetName: 33493 PRISM

Hit Count: updated at: Mon, 28 Nov 2022 04:19:28 GMT